Location: Colonia Mina de C?rbuni
(46.1667°N, 22.7167°E)
Time: 05:03:31
(UTC+00:00)

Transit 4A - Pass Details

Date: 22 April 2024
Orbit: 871 x 971 km, 66.8° (Epoch: 24 May)

Event Time Altitude Azimuth Distance (km) Brightness Sun altitude
Rises 20:52:22 0° 315° (NW) 3,468 12.0 -27.5°
Reaches altitude 10° 20:55:28 10° 299° (WNW) 2,529 10.8 -27.7°
Maximum altitude 20:59:32 20° 254° (WSW) 1,929 9.6 -28.0°
Enters shadow 21:00:31 19° 241° (WSW) 1,972 9.5 -28.1°
